Location: Hepcat Sky Observatory
(29.9800°N, 95.6500°W)
Time: 14:46:48
(UTC-05:00)

Daily predictions for brighter satellites

Satellite Brightness Start Highest point End
(mag) Time Altitude Azimuth Time Altitude Azimuth Time Altitude Azimuth
SME Rocket 4.5 20:40:09 10° S 20:45:55 49° WSW 20:50:04 10° NNW
Okean 1 3.6 20:43:13 10° SSE 20:47:05 46° E 20:50:59 10° NNE
ATLAS 3B R/B 4.0 20:40:41 10° SW 20:47:40 49° WNW 20:54:26 10° NNE
Resurs 01 Rocket 2.8 20:45:37 10° SE 20:49:17 26° ENE 20:52:57 10° NNE
Envisat 3.0 20:45:11 10° SSE 20:50:15 83° ENE 20:55:21 10° N
Cosmos 2208 Rocket 3.9 20:46:38 10° S 20:51:48 77° ESE 20:56:58 10° NNE
Cosmos 1300 Rocket 3.5 20:47:50 10° N 20:52:11 69° E 20:56:27 10° SSE
Meteor 1-18 Rocket 4.3 20:51:02 10° S 20:56:50 77° E 21:02:44 10° N
Cosmos 1864 Rocket 4.4 20:53:02 10° S 20:59:11 81° E 21:05:19 10° N
Cosmos 2151 Rocket 4.1 20:55:55 10° NNW 21:00:17 61° W 21:04:37 10° S
Cosmos 1939 Rocket 3.2 20:57:29 10° SSE 21:01:26 51° ENE 21:05:27 10° N
CZ-2D R/B 4.0 21:03:37 10° S 21:07:24 54° W 21:11:13 10° NNW
Cosmos 2322 Rocket 3.4 21:03:58 10° N 21:08:32 25° ENE 21:12:02 14° ESE
YAOGAN 6 2.6 21:05:00 10° SSE 21:08:41 76° ENE 21:12:22 10° N
Cosmos 1242 Rocket 3.8 21:10:42 10° NNE 21:13:41 24° ENE 21:15:05 19° ESE
SL-16 R/B 3.1 21:13:44 10° N 21:18:49 33° ENE 21:22:11 18° ESE
Cosmos 1340 Rocket 4.1 21:18:28 19° ESE 21:19:37 22° E 21:22:47 10° NE
Thor Agena Rocket 4.2 21:17:28 10° N 21:22:38 60° WNW 21:27:42 10° SSW
Mugunghwa Rocket 4.3 21:16:39 10° WSW 21:23:31 64° S 21:30:25 13° E
FUSE 4.2 21:18:49 10° WSW 21:23:56 50° S 21:27:15 21° ESE
GPS 2-05 Rocket1 2.5 21:20:54 10° WSW 21:24:11 82° SSE 21:26:55 14° ENE
SJ-11-01 4.3 21:20:39 14° SSE 21:24:40 67° ENE 21:29:23 10° N
Cosmos 540 Rocket 4.5 21:22:41 19° SE 21:24:55 25° E 21:29:07 10° NE
Delta 168 3.7 21:23:19 10° WSW 21:26:30 25° SSW 21:27:33 21° SSE
Spot 2 Rocket 3.6 21:25:07 17° SSE 21:28:50 58° ENE 21:33:46 10° N
Resurs 1-3 3.6 21:27:18 13° SSE 21:31:09 87° W 21:35:32 10° NNW
Meteor 1-13 Rocket 4.4 21:25:52 10° S 21:31:36 57° E 21:37:25 10° NNE
Cosmos 1763 Rocket 3.6 21:30:23 10° SSW 21:35:41 83° WNW 21:41:00 10° NNE
Cosmos 1937 Rocket 4.0 21:34:34 10° N 21:39:26 42° ENE 21:41:34 28° ESE
Cosmos 841 Rocket 3.4 21:37:03 10° S 21:42:14 75° ESE 21:47:30 10° NNE
Cosmos 1455 Rocket 4.0 21:40:01 10° NNE 21:43:48 28° E 21:44:21 27° E
USA 186 4.1 21:44:23 10° SSW 21:46:57 23° W 21:49:38 10° NW
ERS-2 3.1 21:44:19 16° S 21:46:59 45° W 21:50:32 10° NNW
Cosmos 1975 Rocket 3.5 21:44:35 10° SSW 21:48:51 60° W 21:53:07 10° N
DELTA 2 R/B (1) 3.7 21:43:35 10° SW 21:48:55 50° SE 21:53:20 15° ENE
BREEZE M DEB (TANK) 4.3 21:49:01 10° NW 21:56:27 28° NNE 21:58:38 17° ENE
Cosmos 1666 3.2 21:53:01 10° NNW 21:56:50 56° W 21:58:43 27° SSW
Cosmos 1975 3.7 21:53:30 10° NNW 21:57:21 46° W 21:59:52 19° SSW
Cosmos 2360 Rocket 3.3 21:52:52 10° N 21:57:39 28° ENE 21:58:58 25° E
USA 32 4.3 21:52:55 10° N 21:58:00 49° E 21:59:24 39° SE
Atlas Centaur 2 1.2 21:54:47 10° W 21:58:36 51° SSW 21:58:45 51° S
Cosmos 1980 Rocket 4.0 21:55:28 10° NW 22:00:09 27° WSW 22:04:51 10° SSW
Delta 142 4.3 21:53:13 10° W 22:00:30 74° S 22:02:52 37° ESE
Meteor 2-20 4.4 21:54:54 10° N 22:01:00 64° E 22:03:41 34° SSE
USA 234 4.1 21:56:04 10° NNE 22:02:22 51° NW 22:08:39 10° WSW
Cosmos 858 Rocket 4.4 21:58:05 10° NNW 22:03:19 88° ENE 22:05:19 39° SSE
Delta 7925 Rocket 3.4 21:58:58 10° W 22:03:30 47° S 22:04:02 44° SSE
Cosmos 292 Rocket 4.1 22:00:28 10° SSW 22:05:11 63° WNW 22:09:54 10° N
GPS 2-04 Rocket1 4.0 22:01:40 10° W 22:05:22 30° SSW 22:05:40 30° SSW
MetOp-A 4.2 22:04:53 42° SE 22:06:29 59° ENE 22:11:45 10° N
ERS-1 Rocket 3.6 22:07:42 36° E 22:08:16 37° ENE 22:12:51 10° N
Cosmos 1544 Rocket 3.5 22:06:57 10° N 22:11:22 64° E 22:11:45 61° ESE
Cosmos 1743 4.0 22:08:44 10° NNW 22:12:16 36° W 22:13:50 25° SW
Meteor 2-9 Rocket 4.0 22:07:17 10° N 22:12:41 81° E 22:14:27 45° SSE
Cosmos 1356 3.6 22:15:41 69° NW 22:15:41 69° NW 22:18:55 10° N
ATLAS CENTAUR R/B 4.3 22:14:20 10° W 22:16:16 12° WSW 22:18:12 10° SW
Centaur D-1AR AC-41 4.3 22:15:50 10° WSW 22:18:06 21° SSW 22:18:06 21° SSW
SJ 16-02 2.8 22:17:25 10° NNE 22:20:27 25° NE 22:20:27 25° NE
Helios 1B rocket 4.4 22:17:55 10° NE 22:19:15 18° NE 22:19:15 18° NE
Cosmos 1536 Rocket 3.4 22:21:53 76° S 22:22:14 87° E 22:26:42 10° N
CENTAUR R/B 3.8 22:17:51 10° WSW 22:23:14 39° NW 22:29:18 10° NNE
Meteor 1-23 Rocket 4.1 22:21:52 41° S 22:23:54 87° E 22:29:29 10° N
Cosmos 1898 Rocket 4.5 22:20:13 10° NNW 22:25:13 42° WSW 22:27:29 28° SSW
Resurs 01 Rocket 3.9 22:22:30 10° SW 22:25:41 19° W 22:28:52 10° NW
SPOT 1/Viking Rocket 4.5 22:26:20 33° ENE 22:26:20 33° ENE 22:30:43 10° N
Cosmos 2333 Rocket 4.4 22:25:18 10° NE 22:27:11 11° ENE 22:27:41 11° ENE
H-2A R/B 1.7 22:29:03 72° SE 22:29:30 82° ENE 22:34:32 10° N
COSMOS 2428 4.3 22:26:18 10° NNE 22:30:29 21° ENE 22:30:38 21° ENE
SL-08 RB Rocket 3.5 22:30:45 86° E 22:30:47 86° ENE 22:35:20 10° N
CZ-4C R/B 4.3 22:27:15 10° N 22:33:13 25° NE 22:35:47 21° ENE
Cosmos 1515 4.4 22:35:38 50° WNW 22:35:38 50° WNW 22:39:12 10° N
Cosmos 1125 Rocket 4.4 22:33:49 10° N 22:38:03 34° ENE 22:38:03 34° ENE
Lacrosse 5 rocket 3.0 22:35:09 10° NNW 22:38:05 25° NNE 22:38:05 25° NNE
ARGOS 3.4 22:37:57 49° SSW 22:39:11 62° WSW 22:44:33 10° NNW
Cosmos 2227 Rocket 4.5 22:47:43 11° ENE 22:47:43 11° ENE 22:47:54 10° NE
Nadezhda 4 Rocket 4.0 22:41:39 10° N 22:47:54 60° E 22:48:05 60° E
Cosmos 2322 Rocket 3.4 22:47:33 10° NW 22:52:31 33° WSW 22:53:53 29° SW
Cosmos 2322 3.8 22:47:28 10° NNW 22:52:56 63° NE 22:52:56 63° NE
DMSP B5D2-2 4.4 22:51:13 10° N 22:56:26 64° WNW 22:57:07 58° WSW
Skynet4D Del rocket 4.4 22:51:04 10° WSW 22:55:25 42° SW 22:55:25 42° SW
Cosmos 1066 Rocket 4.4 22:58:35 59° NNE 22:58:35 59° NNE 23:03:03 10° NNE
Centaur D-1AR AC-36 3.4 22:38:08 10° W 22:58:56 48° SSW 22:59:00 48° S
SL-16 R/B 3.8 22:58:09 10° NW 23:02:40 25° WSW 23:04:04 23° SW
Cosmos 1025 Rocket 4.3 23:04:19 39° N 23:04:19 39° N 23:07:08 10° N
Terra 3.2 23:17:13 33° NNE 23:17:13 33° NNE 23:20:01 10° N
SPOT 5 3.9 23:17:08 38° NW 23:17:08 38° NW 23:20:05 10° NNW
Cosmos 2219 3.4 23:16:32 68° NNW 23:16:32 68° NNW 23:21:46 10° NNE
Mugunghwa Rocket 4.4 23:12:03 10° W 23:18:46 65° SW 23:18:46 65° SW
CZ-2C R/B 3.8 23:34:13 10° NNE 23:37:37 38° NNE 23:37:37 38° NNE
Cosmos 2360 Rocket 3.6 23:36:41 10° NW 23:40:45 29° W 23:40:45 29° W
Cosmos 1634 Rocket 4.3 23:42:54 61° NW 23:42:54 61° NW 23:48:34 10° N
Cosmos 2219 Rocket 3.2 23:39:38 10° NNW 23:43:21 42° N 23:43:21 42° N
COSMOS 2455 3.9 23:54:03 38° NNE 23:54:03 38° NNE 23:57:38 10° NNE
